Location: Omaha
(41.2590°N, 95.9380°W)
Time: 06:24:33
(UTC-06:00)

Vanguard 1 Rocket - Visible Passes

Search period start: 12 December 2017 00:00
Search period end: 22 December 2017 00:00
Orbit: 656 x 4222 km, 34.3° (Epoch: 11 December)

Date Brightness Start Highest point End Pass type
(mag) Time Alt. Az. Time Alt. Az. Time Alt. Az.
12 Dec 9.8 17:33:17 10° SW 17:43:02 53° SSE 18:01:21 11° E visible
12 Dec 10.0 19:57:29 10° W 20:11:28 69° S 20:18:37 50° ESE visible
12 Dec 10.6 22:23:56 10° W 22:35:54 47° WSW 22:35:54 47° WSW visible
13 Dec11.701:35:19SSE01:35:19SSE00:53:11Wvisible
13 Dec 9.8 18:46:40 10° WSW 18:58:13 67° S 19:11:26 28° E visible
13 Dec 10.2 21:12:02 10° W 21:28:09 63° SSW 21:28:43 63° S visible
13 Dec 11.2 23:40:01 10° W 23:46:01 24° W 23:46:01 24° W visible
14 Dec 9.6 17:36:21 10° WSW 17:45:49 58° SSE 18:04:17 10° E visible
14 Dec 10.0 20:00:42 10° W 20:14:19 68° S 20:21:34 49° SE visible
14 Dec 10.7 22:27:11 10° W 22:38:52 43° WSW 22:38:52 43° WSW visible
15 Dec11.801:37:17S01:37:17S00:56:09Wvisible
15 Dec 9.7 18:49:54 10° WSW 19:01:08 67° S 19:14:29 27° ESE visible
15 Dec 10.2 21:15:16 10° W 21:30:51 58° SSW 21:31:47 58° S visible
15 Dec 11.3 23:43:40 10° W 23:49:05 21° W 23:49:05 21° W visible
16 Dec 9.5 17:39:30 10° WSW 17:48:43 61° SSE 18:06:58 10° E visible
16 Dec 10.0 20:03:58 10° W 20:17:11 64° S 20:24:46 46° SE visible
16 Dec 10.7 22:30:35 10° W 22:42:04 39° WSW 22:42:04 39° WSW visible
17 Dec11.801:38:54S01:38:54S00:59:23Wvisible
17 Dec 9.7 18:53:09 10° W 19:04:06 66° S 19:17:50 25° ESE visible
17 Dec 10.3 21:18:35 10° W 21:33:33 52° SSW 21:35:09 52° S visible
17 Dec 11.4 23:47:42 10° W 23:52:27 18° WSW 23:52:27 18° WSW visible
18 Dec 9.5 17:42:44 10° WSW 17:51:42 63° S 18:09:36 10° E visible
18 Dec 10.0 20:07:16 10° W 20:20:03 59° SSW 20:28:19 41° SE visible
18 Dec 10.9 22:34:11 10° W 22:45:38 34° SW 22:45:38 34° SW visible
19 Dec 9.7 18:56:27 10° W 19:07:05 63° S 19:21:37 22° ESE visible
19 Dec 10.5 21:22:00 10° W 21:36:16 46° SSW 21:38:57 44° S visible
19 Dec 11.5 23:52:24 10° W 23:56:17 15° WSW 23:56:17 15° WSW visible
20 Dec 9.4 17:46:01 10° WSW 17:54:45 63° S 18:12:11 10° ESE visible
20 Dec 10.1 20:10:38 10° W 20:22:56 53° SSW 20:32:23 35° SE visible
20 Dec 11.0 22:38:04 10° W 22:49:44 29° SW 22:49:44 29° SW visible
21 Dec 9.8 18:59:48 10° W 19:10:06 59° S 19:26:01 17° ESE visible
21 Dec 10.6 21:25:34 10° W 21:39:02 39° SSW 21:43:23 36° S visible
